Location: Newark
(48.8656°N, 2.3211°E)
Time: 06:22:54
(UTC+00:00)

Envisat - Pass Details

Date: 09 December 2019
Orbit: 764 x 766 km, 98.1° (Epoch: 20 January)

Event Time Altitude Azimuth Distance (km) Brightness Sun altitude
Rises 18:13:29 0° 183° (S) 3,221 6.4 -21.9°
Reaches altitude 10° 18:15:53 10° 190° (S) 2,299 5.7 -22.3°
Maximum altitude 18:20:43 44° 262° (W) 1,051 4.1 -23.0°
Drops below altitude 10° 18:25:36 10° 335° (NNW) 2,316 5.7 -23.8°
Sets 18:28:01 0° 341° (NNW) 3,247 6.4 -24.2°
